1486454400.45,51605,10.56,72706.5,-5.61,-24.87,-25.03,0,*58
1486454401.71,51606,10.56,72710.0,-5.63,-25.03,-25.03,0,*54
1486454402.94,51607,10.56,72708.5,-5.63,-24.97,-24.87,0,*54
1486454404.14,51608,10.56,72708.0,-5.63,-24.97,-24.97,0,*5A
1486454405.43,51609,10.56,72708.5,-5.61,-25.03,-25.03,0,*59
1486454406.69,51610,10.56,72708.0,-5.63,-24.87,-25.03,0,*5E
1486454407.93,51611,10.56,72706.3,-5.63,-25.03,-25.13,0,*53
1486454409.16,51612,10.56,72710.3,-5.61,-25.13,-24.97,0,*5E
1486454410.42,51613,10.56,72708.8,-5.61,-24.97,-25.03,0,*5E
1486454411.66,51614,10.56,72710.0,-5.63,-24.97,-25.03,0,*5B
1486454412.91,51615,10.56,72706.3,-5.61,-24.97,-25.03,0,*58
1486454414.17,51616,10.56,72710.8,-5.61,-25.03,-24.97,0,*5B
1486454415.4,51617,10.56,72708.3,-5.57,-24.97,-24.97,0,*53
1486454416.63,51618,10.56,72708.5,-5.57,-24.93,-25.09,0,*5E
1486454417.86,51619,10.56,72708.3,-5.57,-25.19,-25.13,0,*57
1486454419.1,51620,10.56,72708.3,-5.61,-25.23,-25.19,0,*5B
1486454420.33,51621,10.56,72710.3,-5.61,-25.23,-25.19,0,*5A
1486454421.61,51622,10.56,72710.8,-5.61,-25.03,-25.03,0,*50
1486454422.87,51623,10.56,72710.3,-5.61,-24.97,-25.03,0,*5D
1486454424.11,51624,10.56,72710.8,-5.61,-25.49,-25.35,0,*5D
1486454425.34,51625,10.56,72710.3,-5.61,-25.23,-25.19,0,*5E
1486454426.61,51626,10.56,72708.3,-5.61,-25.03,-25.13,0,*55
1486454427.84,51627,10.56,72710.5,-5.61,-24.97,-24.97,0,*55
1486454429.08,51628,10.56,72708.0,-5.61,-25.19,-25.13,0,*50
1486454430.34,51629,10.56,72708.3,-5.61,-25.03,-25.13,0,*5A
1486454431.57,51630,10.56,72710.5,-5.61,-25.35,-25.23,0,*54
1486454432.8,51631,10.56,72708.5,-5.61,-25.19,-25.19,0,*52
1486454434.04,51632,10.56,72708.8,-5.61,-25.49,-25.39,0,*56
1486454435.25,51633,10.56,72710.3,-5.63,-25.35,-25.35,0,*52
1486454436.46,51634,10.56,72704.0,-5.63,-25.13,-25.13,0,*55
1486454437.73,51635,10.56,72708.5,-5.61,-25.03,-25.13,0,*57
1486454438.96,51636,10.56,72708.0,-5.61,-25.19,-25.19,0,*55
1486454440.23,51637,10.56,72706.5,-5.61,-25.55,-25.39,0,*5E
1486454441.46,51638,10.56,72710.0,-5.61,-25.19,-25.19,0,*5B
1486454442.71,51639,10.56,72706.0,-5.61,-25.49,-25.49,0,*5A
1486454443.95,51640,10.56,72704.8,-5.63,-25.55,-25.39,0,*5C
1486454445.16,51641,10.56,72706.5,-5.63,-25.39,-25.23,0,*5C
1486454446.39,51642,10.56,72710.0,-5.61,-25.23,-25.19,0,*5F
1486454447.63,51643,10.56,72710.5,-5.61,-25.49,-25.39,0,*50
1486454448.88,51644,10.56,72704.8,-5.63,-25.55,-25.49,0,*5F
1486454450.11,51645,10.56,72706.3,-5.61,-25.23,-25.35,0,*56
1486454451.38,51646,10.56,72710.3,-5.61,-25.65,-25.71,0,*57
1486454452.68,51647,10.56,72710.0,-5.61,-25.71,-25.71,0,*53
1486454453.95,51648,10.56,72710.0,-5.63,-25.71,-25.71,0,*5E
1486454455.19,51649,10.56,72708.0,-5.61,-25.49,-25.49,0,*5D
1486454456.4,51650,10.56,72704.8,-5.63,-25.35,-25.35,0,*57
1486454457.63,51651,10.56,72708.0,-5.61,-25.23,-25.19,0,*5D
1486454458.84,51652,10.56,72708.0,-5.63,-25.13,-25.13,0,*55
1486454460.08,51653,10.56,72708.5,-5.61,-25.39,-25.35,0,*5A
1486454461.35,51654,10.56,72710.3,-5.63,-25.55,-25.55,0,*53
1486454462.62,51655,10.56,72708.5,-5.63,-25.71,-25.71,0,*52
1486454463.88,51656,10.56,72708.8,-5.63,-25.71,-25.81,0,*5E
1486454465.13,51657,10.56,72708.3,-5.65,-26.03,-26.03,0,*56
1486454466.37,51658,10.56,72710.0,-5.65,-26.07,-26.03,0,*5D
1486454467.6,51659,10.56,72706.5,-5.65,-25.87,-25.87,0,*58
1486454468.87,51660,10.56,72708.5,-5.67,-25.71,-25.55,0,*56
1486454470.12,51661,10.56,72708.5,-5.65,-25.61,-25.45,0,*55
1486454471.35,51662,10.56,72706.8,-5.67,-25.45,-25.39,0,*59
1486454472.56,51663,10.56,72704.0,-5.67,-25.87,-25.87,0,*53
1486454473.82,51664,10.56,72706.3,-5.65,-25.71,-25.61,0,*57
1486454475.03,51665,10.56,72708.5,-5.67,-25.87,-25.87,0,*55
1486454476.27,51666,10.56,72708.0,-5.67,-25.87,-25.71,0,*5F
1486454477.53,51667,10.56,72704.8,-5.67,-25.75,-25.71,0,*53
1486454478.74,51668,10.56,72706.5,-5.67,-25.39,-25.19,0,*5A
1486454479.98,51669,10.56,72704.8,-5.67,-25.45,-25.45,0,*59
1486454481.24,51670,10.56,72706.5,-5.67,-25.55,-25.45,0,*50
1486454482.53,51671,10.56,72706.3,-5.69,-25.55,-25.45,0,*5F
1486454483.77,51672,10.56,72706.3,-5.67,-25.55,-25.61,0,*54
1486454485.0,51673,10.56,72706.3,-5.67,-25.29,-25.19,0,*51
1486454486.2,51674,10.56,72706.3,-5.67,-25.23,-25.09,0,*5D
1486454487.43,51675,10.56,72706.0,-5.65,-25.23,-25.19,0,*5F
1486454488.68,51676,10.56,72706.5,-5.67,-25.45,-25.45,0,*57
1486454489.91,51677,10.56,72710.0,-5.67,-25.61,-25.45,0,*50
1486454491.15,51678,10.56,72704.5,-5.67,-25.55,-25.39,0,*53
1486454492.37,51679,10.56,72704.5,-5.67,-25.29,-25.23,0,*52
1486454493.58,51680,10.56,72704.8,-5.67,-25.19,-25.09,0,*5F
1486454494.79,51681,10.56,72710.0,-5.67,-25.09,-25.09,0,*5F
1486454495.99,51682,10.56,72706.0,-5.67,-25.23,-25.19,0,*55
1486454497.22,51683,10.56,72706.8,-5.67,-25.29,-25.19,0,*5E
1486454498.42,51684,10.56,72706.8,-5.67,-25.39,-25.19,0,*58
1486454499.62,51685,10.56,72710.0,-5.67,-25.39,-25.19,0,*59
1486454500.86,51686,10.56,72706.8,-5.67,-25.55,-25.39,0,*52
1486454502.11,51687,10.56,72700.8,-5.69,-25.45,-25.23,0,*57
1486454503.34,51688,10.63,72708.5,-5.67,-25.29,-25.19,0,*55
1486454504.54,51689,10.56,72708.3,-5.67,-25.19,-25.19,0,*57
1486454505.74,51690,10.56,72704.8,-5.67,-25.19,-25.19,0,*5F
1486454506.95,51691,10.56,72702.3,-5.67,-25.23,-25.09,0,*56
1486454508.15,51692,10.56,72704.5,-5.67,-25.23,-25.19,0,*54
1486454509.38,51693,10.56,72706.8,-5.67,-25.45,-25.39,0,*57
1486454510.64,51694,10.56,72708.0,-5.67,-25.55,-25.29,0,*50
1486454511.86,51695,10.56,72706.0,-5.67,-25.45,-25.23,0,*5A
1486454513.11,51696,10.56,72704.8,-5.67,-25.45,-25.29,0,*53
1486454514.32,51697,10.56,72704.5,-5.67,-25.39,-25.23,0,*53
1486454515.58,51698,10.56,72708.3,-5.67,-25.55,-25.45,0,*56
1486454516.81,51699,10.56,72704.0,-5.67,-25.61,-25.55,0,*51
1486454518.05,51700,10.56,72708.3,-5.67,-25.55,-25.39,0,*5D
1486454519.29,51701,10.56,72704.5,-5.67,-25.55,-25.39,0,*5C
1486454520.52,51702,10.56,72704.5,-5.67,-25.61,-25.45,0,*53
1486454521.72,51703,10.56,72706.5,-5.67,-25.39,-25.23,0,*5F
1486454522.98,51704,10.56,72706.5,-5.65,-25.55,-25.23,0,*50
1486454524.24,51705,10.56,72704.0,-5.67,-25.45,-25.29,0,*58
1486454525.49,51706,10.56,72704.3,-5.69,-25.29,-25.09,0,*5D
1486454526.73,51707,10.56,72706.3,-5.71,-25.49,-25.29,0,*51
1486454528.0,51708,10.56,72706.3,-5.69,-25.55,-25.39,0,*5B
1486454529.25,51709,10.56,72704.0,-5.65,-25.45,-25.39,0,*57
1486454530.51,51710,10.56,72702.8,-5.69,-25.29,-25.23,0,*52
1486454531.77,51711,10.56,72706.5,-5.69,-25.55,-25.23,0,*58
1486454533.03,51712,10.56,72706.8,-5.69,-25.29,-25.09,0,*58
1486454534.28,51713,10.63,72708.3,-5.69,-25.39,-25.29,0,*5A
1486454535.5,51714,10.56,72706.5,-5.71,-25.13,-24.93,0,*5C
1486454536.72,51715,10.63,72706.8,-5.69,-24.93,-24.77,0,*57
1486454537.98,51716,10.56,72706.3,-5.67,-24.87,-24.71,0,*59
1486454539.2,51717,10.56,72706.5,-5.65,-25.19,-24.93,0,*50
1486454540.41,51718,10.56,72706.0,-5.67,-25.23,-25.09,0,*56
1486454541.61,51719,10.63,72706.8,-5.67,-25.39,-25.19,0,*5D
1486454542.81,51720,10.63,72708.0,-5.67,-25.23,-25.19,0,*5C
1486454544.04,51721,10.56,72702.8,-5.67,-25.29,-25.19,0,*57
1486454545.29,51722,10.56,72702.3,-5.65,-25.19,-25.03,0,*5E
1486454546.52,51723,10.56,72704.0,-5.67,-25.23,-24.87,0,*59
1486454547.75,51724,10.56,72706.0,-5.67,-25.23,-25.03,0,*53
1486454548.97,51725,10.56,72706.8,-5.67,-25.03,-24.93,0,*58
1486454550.18,51726,10.56,72706.8,-5.67,-25.19,-25.09,0,*52
1486454551.38,51727,10.56,72706.3,-5.67,-25.19,-24.93,0,*51
1486454552.61,51728,10.56,72706.5,-5.67,-25.03,-24.77,0,*5F
1486454553.87,51729,10.56,72706.8,-5.65,-25.09,-25.03,0,*54
1486454555.09,51730,10.56,72702.0,-5.65,-25.09,-24.93,0,*54
1486454556.29,51731,10.56,72704.8,-5.67,-24.93,-24.77,0,*5F
1486454557.54,51732,10.56,72706.3,-5.65,-25.23,-25.03,0,*56
1486454558.8,51733,10.63,72704.8,-5.67,-25.29,-25.03,0,*5F
1486454560.05,51734,10.63,72706.8,-5.65,-25.23,-25.03,0,*50
1486454561.28,51735,10.56,72706.0,-5.65,-25.23,-25.09,0,*5B
1486454562.51,51736,10.56,72704.5,-5.65,-25.19,-24.93,0,*53
1486454563.71,51737,10.56,72704.5,-5.67,-25.23,-24.93,0,*59
1486454564.94,51738,10.56,72702.5,-5.65,-25.39,-25.09,0,*5D
1486454566.2,51739,10.63,72708.8,-5.65,-25.09,-24.87,0,*58
1486454567.43,51740,10.63,72708.3,-5.65,-25.39,-25.19,0,*53
1486454568.66,51741,10.56,72706.8,-5.65,-25.39,-25.09,0,*53
1486454569.87,51742,10.63,72706.8,-5.67,-25.39,-25.09,0,*52
1486454571.13,51743,10.56,72704.8,-5.65,-25.09,-24.87,0,*55
1486454572.38,51744,10.56,72704.0,-5.65,-25.09,-24.87,0,*52
1486454573.6,51745,10.56,72704.0,-5.65,-25.23,-24.93,0,*5E
1486454574.84,51746,10.56,72702.5,-5.67,-25.03,-24.77,0,*57
1486454576.11,51747,10.63,72706.0,-5.65,-25.29,-25.03,0,*5E
1486454577.37,51748,10.56,72706.3,-5.65,-25.23,-24.87,0,*56
1486454578.62,51749,10.56,72704.5,-5.65,-25.09,-24.71,0,*56
1486454579.87,51750,10.63,72706.8,-5.65,-25.45,-25.19,0,*59
1486454581.13,51751,10.56,72706.3,-5.65,-25.39,-25.03,0,*58
1486454582.38,51752,10.56,72706.3,-5.65,-25.19,-24.87,0,*54
1486454583.61,51753,10.56,72704.8,-5.65,-25.23,-24.93,0,*59
1486454584.86,51754,10.63,72706.0,-5.65,-25.29,-24.93,0,*54
1486454586.11,51755,10.56,72704.0,-5.65,-25.19,-24.87,0,*53
1486454587.34,51756,10.56,72704.0,-5.63,-24.87,-24.57,0,*5D
1486454588.57,51757,10.63,72708.3,-5.63,-24.97,-24.67,0,*5E
1486454589.8,51758,10.56,72702.8,-5.63,-24.97,-24.67,0,*51
1486454591.03,51759,10.56,72704.8,-5.65,-25.09,-24.77,0,*51
1486454592.28,51760,10.56,72706.5,-5.65,-25.03,-24.61,0,*56
1486454593.54,51761,10.56,72702.5,-5.63,-25.03,-24.67,0,*57
1486454594.8,51762,10.63,72704.5,-5.61,-25.13,-24.67,0,*57
1486454596.02,51763,10.56,72700.5,-5.63,-25.19,-24.83,0,*54
1486454597.26,51764,10.63,72708.0,-5.61,-24.97,-24.57,0,*5F
1486454598.49,51765,10.56,72704.8,-5.63,-25.13,-24.67,0,*52
1486454599.72,51766,10.56,72702.8,-5.63,-25.13,-24.83,0,*5B
1486454600.93,51767,10.56,72700.8,-5.63,-25.23,-24.97,0,*5C
1486454602.16,51768,10.56,72706.5,-5.63,-25.19,-24.83,0,*5F
1486454603.36,51769,10.56,72706.0,-5.63,-25.39,-24.97,0,*59
1486454604.62,51770,10.56,72706.3,-5.63,-25.03,-24.67,0,*57
1486454605.85,51771,10.56,72706.8,-5.63,-25.23,-24.87,0,*5A
1486454607.08,51772,10.56,72704.8,-5.61,-25.39,-24.97,0,*51
1486454608.34,51773,10.56,72702.5,-5.61,-25.19,-24.83,0,*57
1486454609.57,51774,10.56,72706.5,-5.63,-25.19,-24.71,0,*5F
1486454610.82,51775,10.56,72704.3,-5.61,-25.19,-24.67,0,*5B
1486454612.09,51776,10.63,72704.3,-5.61,-25.55,-25.13,0,*52
1486454613.33,51777,10.56,72704.8,-5.63,-25.13,-24.71,0,*56
1486454614.54,51778,10.56,72702.0,-5.63,-24.97,-24.51,0,*56
1486454615.8,51779,10.56,72702.5,-5.63,-24.83,-24.25,0,*51
1486454617.03,51780,10.56,72704.0,-5.61,-24.97,-24.51,0,*53
1486454618.3,51781,10.63,72706.8,-5.61,-25.13,-24.71,0,*5D
1486454619.58,51782,10.63,72710.0,-5.61,-25.03,-24.41,0,*5C
1486454620.82,51783,10.56,72700.0,-5.61,-24.97,-24.51,0,*50
1486454622.05,51784,10.63,72706.0,-5.63,-25.23,-24.71,0,*59
1486454623.28,51785,10.56,72704.3,-5.63,-25.39,-24.87,0,*5A
1486454624.49,51786,10.56,72702.3,-5.63,-25.23,-24.57,0,*5F
1486454625.72,51787,10.56,72706.0,-5.63,-25.23,-24.71,0,*5A
1486454627.01,51788,10.56,72704.3,-5.61,-25.03,-24.41,0,*56
1486454628.26,51789,10.63,72706.5,-5.63,-25.03,-24.41,0,*55
1486454629.52,51790,10.63,72706.8,-5.61,-24.97,-24.41,0,*53
1486454630.75,51791,10.63,72708.0,-5.61,-24.97,-24.35,0,*51
1486454632.04,51792,10.63,72704.8,-5.61,-24.87,-24.25,0,*52
1486454633.29,51793,10.63,72704.5,-5.61,-24.87,-24.35,0,*52
1486454634.55,51794,10.63,72704.3,-5.61,-24.87,-24.35,0,*55
1486454635.8,51795,10.63,72704.5,-5.61,-25.23,-24.67,0,*5C
1486454637.06,51796,10.63,72704.3,-5.61,-24.97,-24.41,0,*55
1486454638.35,51797,10.63,72706.0,-5.61,-24.83,-24.25,0,*53
1486454639.64,51798,10.63,72704.0,-5.61,-24.83,-24.15,0,*5F
1486454640.92,51799,10.63,72704.5,-5.61,-24.87,-24.25,0,*59
1486454642.21,51800,10.63,72706.5,-5.57,-24.83,-24.21,0,*53
1486454643.47,51801,10.63,72706.8,-5.57,-25.45,-24.77,0,*5A
1486454644.7,51802,10.56,72704.5,-5.57,-25.09,-24.51,0,*55
1486454645.96,51803,10.63,72706.3,-5.61,-24.97,-24.25,0,*54
1486454647.21,51804,10.63,72704.8,-5.57,-24.77,-24.11,0,*5F
1486454648.47,51805,10.63,72708.0,-5.57,-24.77,-24.11,0,*5E
1486454649.71,51806,10.63,72706.3,-5.55,-24.71,-24.05,0,*5C
1486454651.0,51807,10.63,72704.0,-5.57,-24.83,-24.21,0,*54
1486454652.21,51808,10.63,72708.5,-5.55,-24.77,-24.05,0,*54
1486454653.45,51809,10.63,72710.3,-5.55,-24.71,-24.05,0,*53
1486454654.73,51810,10.63,72708.0,-5.57,-24.83,-24.11,0,*51
1486454655.96,51811,10.63,72704.3,-5.55,-24.61,-23.95,0,*55
1486454657.22,51812,10.63,72704.0,-5.57,-24.97,-24.21,0,*55
1486454658.46,51813,10.56,72702.5,-5.55,-24.71,-24.05,0,*58
1486454659.71,51814,10.63,72702.3,-5.57,-24.77,-23.99,0,*59
1486454660.95,51815,10.63,72706.5,-5.55,-24.71,-23.89,0,*5D
1486454662.19,51816,10.56,72702.8,-5.55,-24.71,-23.89,0,*5E
1486454663.42,51817,10.63,72706.3,-5.55,-24.77,-23.95,0,*54
1486454664.62,51818,10.63,72704.3,-5.55,-24.61,-23.79,0,*5E
1486454665.83,51819,10.63,72706.8,-5.55,-24.61,-23.89,0,*50
1486454667.06,51820,10.63,72704.3,-5.55,-24.71,-23.89,0,*5B
1486454668.27,51821,10.63,72706.3,-5.55,-24.61,-23.89,0,*5B
1486454669.48,51822,10.63,72706.5,-5.55,-24.77,-24.05,0,*5C
1486454670.76,51823,10.56,72704.8,-5.53,-24.87,-24.15,0,*55
1486454672.05,51824,10.63,72708.3,-5.53,-24.71,-23.95,0,*54
1486454673.28,51825,10.63,72704.5,-5.51,-24.71,-23.89,0,*5A
1486454674.54,51826,10.63,72704.0,-5.53,-24.77,-23.95,0,*50
1486454675.82,51827,10.63,72704.8,-5.53,-24.87,-24.15,0,*51
1486454677.11,51828,10.63,72704.0,-5.53,-24.71,-23.95,0,*58
1486454678.39,51829,10.63,72710.3,-5.53,-25.03,-24.15,0,*52
1486454679.65,51830,10.56,72704.8,-5.53,-24.77,-23.95,0,*57
1486454680.88,51831,10.63,72706.8,-5.53,-24.77,-23.89,0,*5B
1486454682.14,51832,10.63,72704.8,-5.53,-24.77,-23.95,0,*55
1486454683.41,51833,10.63,72704.5,-5.53,-24.71,-23.79,0,*50
1486454684.67,51834,10.63,72706.5,-5.53,-24.71,-23.89,0,*58
1486454685.88,51835,10.63,72708.5,-5.55,-24.61,-23.79,0,*51
1486454687.15,51836,10.63,72706.3,-5.53,-24.71,-23.75,0,*59
1486454688.39,51837,10.63,72710.5,-5.53,-24.61,-23.75,0,*59
1486454689.63,51838,10.63,72710.3,-5.53,-24.61,-23.89,0,*55
1486454690.89,51839,10.63,72710.0,-5.53,-24.71,-23.89,0,*55
1486454692.15,51840,10.63,72708.5,-5.53,-24.87,-23.89,0,*52
1486454693.42,51841,10.63,72712.0,-5.53,-24.71,-23.79,0,*55
1486454694.68,51842,10.56,72706.3,-5.53,-25.03,-24.05,0,*5E
1486454695.93,51843,10.63,72708.3,-5.53,-24.77,-23.95,0,*53
1486454697.16,51844,10.63,72708.3,-5.53,-24.93,-23.89,0,*53
1486454698.4,51845,10.63,72706.5,-5.53,-24.93,-23.95,0,*5F
1486454699.66,51846,10.63,72708.0,-5.53,-24.77,-23.95,0,*56
1486454700.91,51847,10.63,72706.8,-5.55,-24.87,-23.95,0,*5E
1486454702.2,51848,10.63,72706.8,-5.53,-24.71,-23.65,0,*51
1486454703.46,51849,10.63,72704.8,-5.53,-24.57,-23.49,0,*5A
1486454704.73,51850,10.63,72706.0,-5.53,-24.57,-23.49,0,*52
1486454705.96,51851,10.63,72704.0,-5.51,-24.51,-23.53,0,*5C
1486454707.17,51852,10.63,72708.3,-5.51,-24.57,-23.59,0,*53
1486454708.4,51853,10.63,72708.8,-5.51,-24.67,-23.59,0,*51
1486454709.64,51854,10.63,72710.8,-5.53,-24.61,-23.59,0,*52
1486454710.87,51855,10.63,72708.3,-5.53,-24.57,-23.59,0,*56
1486454712.09,51856,10.63,72708.3,-5.51,-24.57,-23.43,0,*5C
1486454713.32,51857,10.63,72710.0,-5.53,-24.57,-23.59,0,*54
1486454714.55,51858,10.63,72706.3,-5.51,-24.57,-23.53,0,*53
1486454715.76,51859,10.63,72708.3,-5.51,-24.57,-23.59,0,*58
1486454716.98,51860,10.63,72708.3,-5.51,-24.57,-23.43,0,*59
1486454718.21,51861,10.63,72710.0,-5.51,-24.57,-23.53,0,*59
1486454719.45,51862,10.63,72708.8,-5.53,-24.77,-23.79,0,*52
1486454720.71,51863,10.63,72708.5,-5.51,-25.03,-23.85,0,*50
1486454721.95,51864,10.63,72710.0,-5.51,-24.71,-23.59,0,*52
1486454723.21,51865,10.63,72708.0,-5.51,-24.87,-23.85,0,*5B
1486454724.46,51866,10.63,72710.5,-5.51,-24.67,-23.69,0,*54
1486454725.68,51867,10.63,72712.5,-5.51,-24.57,-23.43,0,*5E
1486454726.92,51868,10.63,72710.3,-5.51,-24.51,-23.29,0,*5B
1486454728.13,51869,10.63,72710.0,-5.51,-24.51,-23.39,0,*5B
1486454729.4,51870,10.63,72710.8,-5.53,-24.47,-23.33,0,*5C
1486454730.63,51871,10.63,72710.5,-5.51,-24.57,-23.29,0,*55
1486454731.84,51872,10.63,72710.8,-5.51,-24.57,-23.39,0,*57
1486454733.05,51873,10.63,72710.0,-5.51,-24.35,-23.13,0,*5A
1486454734.27,51874,10.63,72708.8,-5.51,-24.35,-23.09,0,*56
1486454735.53,51875,10.63,72708.5,-5.51,-24.41,-23.23,0,*5C
1486454736.77,51876,10.63,72710.3,-5.51,-24.57,-23.23,0,*58
1486454738.07,51877,10.63,72710.0,-5.49,-24.41,-23.03,0,*55
1486454739.31,51878,10.63,72710.0,-5.45,-24.31,-22.97,0,*5D
1486454740.58,51879,10.63,72710.0,-5.49,-24.51,-23.23,0,*58
1486454741.84,51880,10.63,72708.5,-5.49,-24.67,-23.39,0,*50
1486454743.1,51881,10.63,72710.8,-5.49,-24.51,-23.29,0,*55
1486454744.34,51882,10.63,72708.0,-5.45,-24.61,-23.39,0,*58
1486454745.61,51883,10.63,72710.8,-5.45,-24.51,-23.19,0,*58
1486454746.88,51884,10.63,72712.8,-5.49,-24.71,-23.43,0,*5E
1486454748.14,51885,10.63,72712.8,-5.49,-24.67,-23.39,0,*55
1486454749.4,51886,10.63,72710.3,-5.49,-24.57,-23.23,0,*5E
1486454750.63,51887,10.63,72708.8,-5.49,-24.57,-23.13,0,*5C
1486454751.88,51888,10.63,72710.5,-5.45,-24.57,-23.09,0,*54
1486454753.11,51889,10.63,72712.5,-5.45,-24.77,-23.39,0,*54
1486454754.38,51890,10.63,72708.3,-5.45,-24.61,-23.23,0,*50
1486454755.63,51891,10.63,72708.3,-5.45,-24.51,-23.09,0,*5A
1486454756.86,51892,10.63,72712.5,-5.49,-24.57,-23.13,0,*58
1486454758.14,51893,10.63,72708.3,-5.49,-24.87,-23.53,0,*50
1486454759.43,51894,10.63,72710.8,-5.45,-24.67,-23.23,0,*52
1486454760.7,51895,10.63,72708.5,-5.45,-24.51,-23.03,0,*54
1486454761.96,51896,10.63,72708.5,-5.49,-24.67,-23.39,0,*57
1486454763.23,51897,10.63,72708.5,-5.45,-24.77,-23.23,0,*50
1486454764.47,51898,10.63,72708.8,-5.45,-24.51,-22.97,0,*55
1486454765.74,51899,10.63,72708.0,-5.45,-24.61,-23.23,0,*59
1486454767.01,51900,10.63,72714.5,-5.49,-24.83,-23.43,0,*5E
1486454768.3,51901,10.63,72708.3,-5.49,-24.83,-23.23,0,*59
1486454769.56,51902,10.63,72708.0,-5.45,-24.61,-23.19,0,*53
1486454770.83,51903,10.63,72708.3,-5.49,-24.67,-23.09,0,*59
1486454772.07,51904,10.63,72712.5,-5.45,-24.35,-22.87,0,*52
1486454773.33,51905,10.63,72710.8,-5.49,-24.51,-23.03,0,*50
1486454774.6,51906,10.63,72708.8,-5.45,-24.51,-23.03,0,*5F
1486454775.84,51907,10.63,72708.0,-5.45,-24.35,-22.83,0,*55
1486454777.11,51908,10.63,72712.0,-5.49,-24.25,-22.93,0,*56
1486454778.38,51909,10.63,72710.0,-5.49,-24.41,-22.93,0,*55
1486454779.62,51910,10.63,72710.5,-5.45,-24.47,-22.87,0,*52
1486454780.87,51911,10.63,72710.0,-5.45,-24.47,-22.87,0,*53
1486454782.14,51912,10.63,72714.5,-5.49,-24.41,-22.93,0,*5F
1486454783.38,51913,10.56,72708.3,-5.45,-24.31,-22.83,0,*54
1486454784.65,51914,10.63,72708.0,-5.45,-24.51,-23.03,0,*5C
1486454785.89,51915,10.63,72710.0,-5.45,-24.35,-22.83,0,*56
1486454787.13,51916,10.63,72710.5,-5.45,-24.47,-22.87,0,*54
1486454788.4,51917,10.63,72710.3,-5.45,-24.67,-23.09,0,*50
1486454789.65,51918,10.63,72710.5,-5.45,-24.51,-23.09,0,*5A
1486454790.91,51919,10.63,72710.3,-5.45,-24.77,-23.19,0,*5E
1486454792.2,51920,10.63,72712.0,-5.49,-24.83,-23.23,0,*5A
1486454793.45,51921,10.63,72714.5,-5.45,-24.77,-23.09,0,*54
1486454794.69,51922,10.63,72714.0,-5.45,-24.61,-22.97,0,*56
1486454795.93,51923,10.63,72712.0,-5.45,-24.51,-22.87,0,*55
1486454797.18,51924,10.63,72712.3,-5.45,-24.51,-22.97,0,*53
1486454798.45,51925,10.63,72712.0,-5.45,-24.21,-22.63,0,*5E
1486454799.69,51926,10.63,72710.5,-5.45,-24.61,-22.97,0,*52
1486454800.97,51927,10.63,72712.0,-5.49,-24.87,-23.23,0,*59
1486454802.21,51928,10.63,72712.3,-5.45,-24.61,-22.97,0,*5C
1486454803.46,51929,10.63,72710.8,-5.45,-24.61,-22.97,0,*5D
1486454804.7,51930,10.63,72710.0,-5.49,-24.51,-22.87,0,*5B
1486454805.96,51931,10.63,72708.8,-5.49,-24.35,-22.73,0,*53
1486454807.19,51932,10.63,72712.3,-5.45,-24.35,-22.83,0,*53
1486454808.43,51933,10.63,72714.3,-5.45,-24.05,-22.41,0,*5F
1486454809.66,51934,10.63,72714.3,-5.45,-24.05,-22.41,0,*58
1486454810.9,51935,10.63,72710.0,-5.45,-24.35,-22.57,0,*5D
1486454812.14,51936,10.63,72708.5,-5.45,-24.31,-22.41,0,*5D
1486454813.41,51937,10.63,72710.3,-5.45,-24.21,-22.53,0,*5E
1486454814.67,51938,10.63,72712.3,-5.45,-24.21,-22.41,0,*52
1486454815.93,51939,10.63,72712.5,-5.45,-24.21,-22.41,0,*53
1486454817.2,51940,10.63,72712.3,-5.45,-23.99,-22.37,0,*58
1486454818.46,51941,10.63,72710.5,-5.45,-24.21,-22.53,0,*5F
1486454819.75,51942,10.63,72712.0,-5.45,-23.99,-22.21,0,*5D
1486454821.01,51943,10.63,72712.8,-5.45,-23.99,-22.27,0,*5A
1486454822.28,51944,10.63,72712.0,-5.45,-24.21,-22.41,0,*59
1486454823.49,51945,10.63,72714.3,-5.43,-24.05,-22.27,0,*58
1486454824.73,51946,10.63,72714.5,-5.45,-24.05,-22.27,0,*5D
1486454825.99,51947,10.63,72716.3,-5.45,-24.15,-22.27,0,*5D
1486454827.25,51948,10.63,72712.3,-5.45,-23.95,-22.11,0,*58
1486454828.46,51949,10.63,72710.3,-5.43,-23.89,-22.07,0,*55
1486454829.67,51950,10.63,72710.8,-5.43,-23.89,-22.03,0,*59
1486454830.91,51951,10.63,72714.0,-5.43,-23.75,-21.87,0,*54
1486454832.13,51952,10.63,72712.3,-5.43,-23.75,-21.93,0,*52
1486454833.37,51953,10.63,72714.5,-5.41,-23.79,-22.03,0,*57
1486454834.61,51954,10.63,72714.0,-5.39,-23.75,-21.87,0,*5C
1486454835.85,51955,10.63,72712.0,-5.39,-23.75,-21.83,0,*59
1486454837.08,51956,10.63,72714.5,-5.39,-23.75,-21.83,0,*5A
1486454838.35,51957,10.63,72712.0,-5.41,-23.79,-21.87,0,*5C
1486454839.6,51958,10.63,72712.0,-5.39,-23.69,-21.97,0,*5C
1486454840.84,51959,10.63,72712.8,-5.41,-23.79,-21.93,0,*57
1486454842.1,51960,10.63,72718.0,-5.41,-23.95,-22.03,0,*55
1486454843.36,51961,10.63,72714.0,-5.39,-23.85,-21.83,0,*51
1486454844.57,51962,10.63,72712.8,-5.39,-24.05,-22.03,0,*56
1486454845.8,51963,10.63,72714.0,-5.35,-23.65,-21.77,0,*5A
1486454847.01,51964,10.63,72714.3,-5.35,-23.79,-21.93,0,*5A
1486454848.24,51965,10.63,72710.8,-5.35,-23.65,-21.77,0,*5C
1486454849.47,51966,10.63,72710.8,-5.35,-23.79,-21.83,0,*59
1486454850.71,51967,10.63,72714.3,-5.35,-23.85,-21.93,0,*5A
1486454851.91,51968,10.63,72710.8,-5.35,-23.79,-21.77,0,*5C
1486454853.14,51969,10.63,72712.5,-5.35,-23.53,-21.73,0,*51
1486454854.37,51970,10.63,72712.5,-5.35,-23.53,-21.73,0,*59
1486454855.6,51971,10.63,72714.3,-5.35,-23.49,-21.63,0,*52
1486454856.85,51972,10.63,72714.5,-5.33,-23.65,-21.63,0,*59
1486454858.08,51973,10.63,72708.8,-5.33,-23.39,-21.47,0,*57
1486454859.37,51974,10.63,72712.5,-5.31,-23.33,-21.53,0,*5D
1486454860.63,51975,10.63,72712.3,-5.31,-23.43,-21.53,0,*5B
1486454861.9,51976,10.63,72710.3,-5.31,-23.43,-21.53,0,*58
1486454863.16,51977,10.63,72712.0,-5.29,-23.33,-21.53,0,*57
1486454864.4,51978,10.63,72712.5,-5.29,-23.33,-21.43,0,*59
1486454865.65,51979,10.63,72712.8,-5.29,-23.43,-21.53,0,*5E
1486454866.86,51980,10.63,72708.3,-5.29,-23.43,-21.43,0,*59
1486454868.15,51981,10.63,72712.3,-5.31,-23.49,-21.67,0,*5D
1486454869.39,51982,10.63,72712.3,-5.29,-23.33,-21.43,0,*5C
1486454870.66,51983,10.63,72714.5,-5.29,-23.33,-21.27,0,*5F
1486454871.9,51984,10.63,72712.8,-5.29,-23.29,-21.39,0,*5C
1486454873.14,51985,10.63,72714.5,-5.29,-23.59,-21.67,0,*51
1486454874.41,51986,10.63,72708.3,-5.29,-23.49,-21.53,0,*54
1486454875.69,51987,10.63,72712.5,-5.27,-23.29,-21.33,0,*5B
1486454876.95,51988,10.63,72714.5,-5.25,-23.29,-21.33,0,*56
1486454878.21,51989,10.63,72714.5,-5.27,-23.23,-21.17,0,*59
1486454879.47,51990,10.63,72716.0,-5.25,-23.29,-21.33,0,*5F
1486454880.71,51991,10.63,72712.3,-5.25,-23.29,-21.39,0,*54
1486454882.0,51992,10.63,72712.3,-5.27,-23.29,-21.23,0,*5E
1486454883.29,51993,10.63,72714.5,-5.27,-23.23,-21.23,0,*55
1486454884.53,51994,10.63,72714.0,-5.21,-23.09,-21.03,0,*5E
1486454885.77,51995,10.63,72712.8,-5.21,-23.19,-21.13,0,*5F
1486454887.03,51996,10.63,72714.8,-5.19,-23.09,-21.03,0,*57
1486454888.27,51997,10.63,72714.5,-5.21,-23.09,-20.99,0,*5F
1486454889.56,51998,10.63,72710.5,-5.19,-23.33,-21.27,0,*56
1486454890.8,51999,10.63,72714.8,-5.21,-23.09,-21.03,0,*53
1486454892.01,52000,10.63,72712.0,-5.17,-23.13,-21.09,0,*5D
1486454893.24,52001,10.63,72714.0,-5.17,-23.19,-21.13,0,*5D
1486454894.53,52002,10.63,72712.8,-5.19,-23.19,-21.03,0,*51
1486454895.79,52003,10.63,72716.5,-5.19,-23.19,-21.13,0,*51
1486454897.0,52004,10.63,72710.0,-5.13,-23.09,-20.93,0,*54